OMD471 KIND-KHPN

Flight info

Callsign OMD471
Flight time 1h 30m
Altitude 37000
Route MAREO5 BDOCK DJB JHW MEMMS DANZI VALRE1
Aircraft A319/M-SDE3FGHIRWY/LB1

Departure

Time 2026-04-27 19:51
Airport Indianapolis International Airport (KIND)

Arrival

Time 2026-04-27 21:21
Airport Westchester County Airport (KHPN)
Time Latitude Longitude Altitude Speed Heading
2026-04-27 19:31 39.72544 -86.27151 797 ft 0 kts 293°
2026-04-27 19:43 39.72547 -86.27164 796 ft 3 kts 287°
2026-04-27 19:43 39.72542 -86.27197 796 ft 4 kts 242°
2026-04-27 19:43 39.72517 -86.27216 796 ft 4 kts 190°
2026-04-27 19:43 39.72492 -86.27219 796 ft 4 kts 187°
2026-04-27 19:44 39.72454 -86.27221 796 ft 6 kts 181°
2026-04-27 19:44 39.72432 -86.27251 795 ft 6 kts 267°
2026-04-27 19:44 39.72481 -86.27328 794 ft 18 kts 312°
2026-04-27 19:44 39.72568 -86.27447 793 ft 18 kts 314°
2026-04-27 19:45 39.72648 -86.27551 792 ft 16 kts 315°
2026-04-27 19:45 39.72730 -86.27656 793 ft 16 kts 316°
2026-04-27 19:45 39.72802 -86.27754 794 ft 14 kts 313°
2026-04-27 19:45 39.72867 -86.27840 795 ft 13 kts 315°
2026-04-27 19:46 39.72884 -86.27932 795 ft 11 kts 243°
2026-04-27 19:46 39.72828 -86.28014 793 ft 13 kts 224°
2026-04-27 19:46 39.72766 -86.28093 794 ft 12 kts 225°
2026-04-27 19:46 39.72709 -86.28169 794 ft 11 kts 225°
2026-04-27 19:47 39.72658 -86.28233 797 ft 9 kts 223°
2026-04-27 19:47 39.72608 -86.28294 800 ft 12 kts 223°
2026-04-27 19:47 39.72542 -86.28376 802 ft 14 kts 225°
2026-04-27 19:47 39.72481 -86.28458 803 ft 12 kts 225°
2026-04-27 19:48 39.72428 -86.28539 802 ft 12 kts 251°
2026-04-27 19:48 39.72463 -86.28649 801 ft 16 kts 305°
2026-04-27 19:48 39.72525 -86.28774 799 ft 17 kts 302°
2026-04-27 19:48 39.72588 -86.28904 797 ft 17 kts 302°
2026-04-27 19:49 39.72655 -86.29039 794 ft 18 kts 301°
2026-04-27 19:49 39.72726 -86.29179 791 ft 18 kts 313°
2026-04-27 19:49 39.72802 -86.29276 791 ft 11 kts 316°
2026-04-27 19:49 39.72804 -86.29319 789 ft 0 kts 226°
2026-04-27 19:50 39.72787 -86.29341 789 ft 20 kts 226°
2026-04-27 19:50 39.72508 -86.29704 782 ft 91 kts 224°
2026-04-27 19:50 39.71914 -86.30457 770 ft 146 kts 224°
2026-04-27 19:50 39.71119 -86.31459 1111 ft 158 kts 227°
2026-04-27 19:51 39.70329 -86.32436 1830 ft 157 kts 217°
2026-04-27 19:51 39.69562 -86.33451 2508 ft 159 kts 223°
2026-04-27 19:51 39.68664 -86.34363 2890 ft 173 kts 193°
2026-04-27 19:51 39.67405 -86.34354 3278 ft 195 kts 171°
2026-04-27 19:52 39.66013 -86.33837 3718 ft 221 kts 166°
2026-04-27 19:52 39.64577 -86.32986 4290 ft 243 kts 150°
2026-04-27 19:52 39.63240 -86.31555 5105 ft 253 kts 146°
2026-04-27 19:52 39.61937 -86.29981 5957 ft 262 kts 138°
2026-04-27 19:53 39.61062 -86.25156 7532 ft 307 kts 80°
2026-04-27 19:53 39.61738 -86.22534 8316 ft 313 kts 75°
2026-04-27 19:53 39.62492 -86.19857 9117 ft 318 kts 74°
2026-04-27 19:54 39.63267 -86.17141 9873 ft 323 kts 74°
2026-04-27 19:54 39.64053 -86.14368 10372 ft 337 kts 74°
2026-04-27 19:54 39.64877 -86.11412 10588 ft 360 kts 74°
2026-04-27 19:54 39.65744 -86.08263 10809 ft 380 kts 74°
2026-04-27 19:55 39.66638 -86.05001 11356 ft 388 kts 73°
2026-04-27 19:55 39.67546 -86.01694 12029 ft 392 kts 73°
2026-04-27 19:55 39.68476 -85.98306 12720 ft 395 kts 73°
2026-04-27 19:55 39.69405 -85.94920 13407 ft 398 kts 72°
2026-04-27 19:56 39.70320 -85.91576 14038 ft 401 kts 72°
2026-04-27 19:56 39.71258 -85.88142 14627 ft 405 kts 72°
2026-04-27 19:56 39.72204 -85.84667 15207 ft 409 kts 72°
2026-04-27 19:56 39.73149 -85.81181 15773 ft 412 kts 71°
2026-04-27 19:57 39.74106 -85.77648 16330 ft 416 kts 71°
2026-04-27 19:57 39.75070 -85.74087 16877 ft 421 kts 71°
2026-04-27 19:57 39.76050 -85.70469 17429 ft 425 kts 71°
2026-04-27 19:57 39.77033 -85.66837 17967 ft 430 kts 69°
2026-04-27 19:58 39.78033 -85.63140 18599 ft 436 kts 71°
2026-04-27 19:58 39.79040 -85.59402 19116 ft 441 kts 71°
2026-04-27 19:58 39.80058 -85.55622 19639 ft 444 kts 70°
2026-04-27 19:58 39.81078 -85.51821 20158 ft 447 kts 70°
2026-04-27 19:59 39.82106 -85.47980 20650 ft 451 kts 70°
2026-04-27 19:59 39.83142 -85.44115 21117 ft 454 kts 70°
2026-04-27 19:59 39.84180 -85.40233 21571 ft 457 kts 70°
2026-04-27 19:59 39.85225 -85.36316 22022 ft 460 kts 70°
2026-04-27 20:00 39.86363 -85.32400 22452 ft 463 kts 63°
2026-04-27 20:00 39.88008 -85.28808 22912 ft 465 kts 55°
2026-04-27 20:00 39.89758 -85.25266 23402 ft 467 kts 55°
2026-04-27 20:00 39.91531 -85.21702 23827 ft 470 kts 55°
2026-04-27 20:01 39.93330 -85.18097 24209 ft 472 kts 55°
2026-04-27 20:01 39.95119 -85.14510 24577 ft 474 kts 55°
2026-04-27 20:01 39.96912 -85.10897 24933 ft 476 kts 55°
2026-04-27 20:01 39.98702 -85.07271 25324 ft 478 kts 55°
2026-04-27 20:02 40.00501 -85.03617 25672 ft 480 kts 55°
2026-04-27 20:02 40.02315 -84.99931 26026 ft 482 kts 55°
2026-04-27 20:02 40.04128 -84.96250 26363 ft 484 kts 55°
2026-04-27 20:02 40.05939 -84.92567 26692 ft 486 kts 55°
2026-04-27 20:03 40.07773 -84.88829 27007 ft 488 kts 55°
2026-04-27 20:03 40.09612 -84.85070 27334 ft 490 kts 55°
2026-04-27 20:03 40.11446 -84.81316 27655 ft 492 kts 55°
2026-04-27 20:03 40.13289 -84.77543 27968 ft 493 kts 55°
2026-04-27 20:04 40.15140 -84.73758 28270 ft 495 kts 55°
2026-04-27 20:04 40.16960 -84.70031 28561 ft 497 kts 55°
2026-04-27 20:04 40.18824 -84.66209 28856 ft 498 kts 55°
2026-04-27 20:04 40.20081 -84.63626 29053 ft 500 kts 55°
2026-04-27 20:05 40.22582 -84.58482 29444 ft 502 kts 55°
2026-04-27 20:05 40.24452 -84.54632 29795 ft 501 kts 55°
2026-04-27 20:05 40.26296 -84.50827 30201 ft 500 kts 55°
2026-04-27 20:05 40.28176 -84.46949 30548 ft 499 kts 55°
2026-04-27 20:06 40.30017 -84.43150 30873 ft 498 kts 54°
2026-04-27 20:06 40.31864 -84.39331 31192 ft 498 kts 54°
2026-04-27 20:06 40.33714 -84.35497 31516 ft 497 kts 54°
2026-04-27 20:06 40.35566 -84.31654 31834 ft 497 kts 54°
2026-04-27 20:07 40.37410 -84.27822 32143 ft 497 kts 54°
2026-04-27 20:07 40.39256 -84.23985 32457 ft 497 kts 54°
2026-04-27 20:07 40.41093 -84.20165 32771 ft 497 kts 54°
2026-04-27 20:07 40.42943 -84.16310 33089 ft 497 kts 53°
2026-04-27 20:08 40.44779 -84.12478 33399 ft 497 kts 53°
2026-04-27 20:08 40.46624 -84.08624 33728 ft 497 kts 53°
2026-04-27 20:08 40.48461 -84.04776 34028 ft 497 kts 53°
2026-04-27 20:08 40.50292 -84.00936 34319 ft 497 kts 53°
2026-04-27 20:09 40.52124 -83.97085 34605 ft 496 kts 53°
2026-04-27 20:09 40.53950 -83.93245 34881 ft 495 kts 53°
2026-04-27 20:09 40.55779 -83.89401 35170 ft 495 kts 53°
2026-04-27 20:09 40.57603 -83.85569 35445 ft 494 kts 53°
2026-04-27 20:10 40.59424 -83.81735 35725 ft 493 kts 53°
2026-04-27 20:10 40.61239 -83.77908 35990 ft 492 kts 53°
2026-04-27 20:10 40.63042 -83.74099 36253 ft 492 kts 53°
2026-04-27 20:10 40.64848 -83.70282 36520 ft 491 kts 53°
2026-04-27 20:11 40.66647 -83.66469 36764 ft 490 kts 53°
2026-04-27 20:11 40.68445 -83.62648 37000 ft 490 kts 53°
2026-04-27 20:11 40.70240 -83.58832 37227 ft 489 kts 53°
2026-04-27 20:11 40.72034 -83.55016 37445 ft 489 kts 53°
2026-04-27 20:12 40.73816 -83.51223 37661 ft 489 kts 53°
2026-04-27 20:12 40.75000 -83.48702 37788 ft 489 kts 53°
2026-04-27 20:12 40.76797 -83.44875 38005 ft 488 kts 53°
2026-04-27 20:12 40.79161 -83.39823 38262 ft 488 kts 53°
2026-04-27 20:13 40.80366 -83.37240 38391 ft 488 kts 53°
2026-04-27 20:13 40.82719 -83.32193 38643 ft 488 kts 53°
2026-04-27 20:13 40.84501 -83.28364 38791 ft 488 kts 53°
2026-04-27 20:13 40.86278 -83.24543 38929 ft 488 kts 53°
2026-04-27 20:14 40.88058 -83.20718 39091 ft 488 kts 53°
2026-04-27 20:14 40.89254 -83.18149 39186 ft 488 kts 53°
2026-04-27 20:14 40.91031 -83.14333 39336 ft 487 kts 53°
2026-04-27 20:14 40.92782 -83.10563 39488 ft 486 kts 53°
2026-04-27 20:15 40.94552 -83.06740 39635 ft 486 kts 53°
2026-04-27 20:15 40.96334 -83.02881 39783 ft 485 kts 54°
2026-04-27 20:15 40.98061 -82.99130 39913 ft 484 kts 54°
2026-04-27 20:15 40.99837 -82.95265 40057 ft 484 kts 54°
2026-04-27 20:16 41.01557 -82.91516 40184 ft 483 kts 54°
2026-04-27 20:16 41.03302 -82.87717 40309 ft 482 kts 54°
2026-04-27 20:16 41.05040 -82.83937 40439 ft 482 kts 54°
2026-04-27 20:16 41.06789 -82.80133 40564 ft 481 kts 54°
2026-04-27 20:17 41.08525 -82.76356 40693 ft 480 kts 54°
2026-04-27 20:17 41.10257 -82.72580 40822 ft 479 kts 54°
2026-04-27 20:17 41.11978 -82.68814 40975 ft 477 kts 54°
2026-04-27 20:17 41.13698 -82.65041 41059 ft 477 kts 54°
2026-04-27 20:18 41.17146 -82.57479 41064 ft 481 kts 54°
2026-04-27 20:18 41.20620 -82.49855 41069 ft 485 kts 54°
2026-04-27 20:19 41.24113 -82.42155 41073 ft 488 kts 54°
2026-04-27 20:19 41.27628 -82.34376 41073 ft 492 kts 54°
2026-04-27 20:20 41.31164 -82.26550 41074 ft 496 kts 54°
2026-04-27 20:20 41.34716 -82.18648 41073 ft 499 kts 55°
2026-04-27 20:21 41.37573 -82.10141 41075 ft 506 kts 65°
2026-04-27 20:21 41.40073 -82.01463 41070 ft 506 kts 65°
2026-04-27 20:22 41.42594 -81.92701 41076 ft 507 kts 65°
2026-04-27 20:22 41.45115 -81.83912 41084 ft 508 kts 65°
2026-04-27 20:23 41.47629 -81.75128 41089 ft 508 kts 65°
2026-04-27 20:23 41.50143 -81.66304 41091 ft 508 kts 65°
2026-04-27 20:24 41.52650 -81.57479 41119 ft 509 kts 65°
2026-04-27 20:24 41.55150 -81.48656 41119 ft 509 kts 65°
2026-04-27 20:25 41.57646 -81.39801 41119 ft 509 kts 65°
2026-04-27 20:25 41.60129 -81.30946 41110 ft 509 kts 65°
2026-04-27 20:26 41.62613 -81.22083 41113 ft 509 kts 65°
2026-04-27 20:26 41.65091 -81.13204 41120 ft 510 kts 65°
2026-04-27 20:27 41.67557 -81.04307 41129 ft 510 kts 65°
2026-04-27 20:27 41.70018 -80.95416 41156 ft 510 kts 65°
2026-04-27 20:28 41.72478 -80.86522 41163 ft 510 kts 65°
2026-04-27 20:28 41.74515 -80.79119 41154 ft 509 kts 65°
2026-04-27 20:29 41.77367 -80.68714 41160 ft 509 kts 65°
2026-04-27 20:29 41.79792 -80.59812 41160 ft 508 kts 65°
2026-04-27 20:30 41.82222 -80.50913 41159 ft 508 kts 64°
2026-04-27 20:30 41.84641 -80.42017 41158 ft 508 kts 65°
2026-04-27 20:31 41.87031 -80.33143 41136 ft 505 kts 64°
2026-04-27 20:31 41.89411 -80.24270 41138 ft 505 kts 64°
2026-04-27 20:32 41.91786 -80.15404 41135 ft 504 kts 64°
2026-04-27 20:32 41.94160 -80.06553 41138 ft 504 kts 64°
2026-04-27 20:33 41.96526 -79.97696 41153 ft 504 kts 64°
2026-04-27 20:33 41.98879 -79.88801 41174 ft 505 kts 64°
2026-04-27 20:34 42.01227 -79.79902 41193 ft 505 kts 64°
2026-04-27 20:34 42.03575 -79.71005 41211 ft 505 kts 64°
2026-04-27 20:35 42.05915 -79.62111 41184 ft 502 kts 64°
2026-04-27 20:35 42.08208 -79.53325 41191 ft 501 kts 64°
2026-04-27 20:36 42.10505 -79.44474 41183 ft 500 kts 64°
2026-04-27 20:36 42.12797 -79.35637 41185 ft 499 kts 64°
2026-04-27 20:37 42.15089 -79.26808 41193 ft 499 kts 64°
2026-04-27 20:37 42.17372 -79.17963 41205 ft 500 kts 64°
2026-04-27 20:38 42.19295 -79.08919 41208 ft 508 kts 75°
2026-04-27 20:38 42.20494 -78.99527 41219 ft 508 kts 74°
2026-04-27 20:39 42.21683 -78.90142 41229 ft 507 kts 74°
2026-04-27 20:39 42.22874 -78.80755 41238 ft 507 kts 74°
2026-04-27 20:40 42.24052 -78.71399 41237 ft 506 kts 74°
2026-04-27 20:40 42.25225 -78.62043 41246 ft 505 kts 74°
2026-04-27 20:41 42.26386 -78.52701 41217 ft 503 kts 74°
2026-04-27 20:41 42.27529 -78.43414 41212 ft 501 kts 74°
2026-04-27 20:42 42.28666 -78.34148 41211 ft 500 kts 74°
2026-04-27 20:42 42.29790 -78.24944 41214 ft 499 kts 75°
2026-04-27 20:43 42.30918 -78.15638 41218 ft 498 kts 74°
2026-04-27 20:43 42.32022 -78.06459 41246 ft 499 kts 75°
2026-04-27 20:44 42.33120 -77.97198 41258 ft 499 kts 75°
2026-04-27 20:44 42.34217 -77.87955 41266 ft 498 kts 75°
2026-04-27 20:45 42.35306 -77.78708 41257 ft 497 kts 75°
2026-04-27 20:45 42.36378 -77.69476 41257 ft 496 kts 75°
2026-04-27 20:46 42.37444 -77.60257 41254 ft 495 kts 75°
2026-04-27 20:46 42.38500 -77.51066 41260 ft 495 kts 75°
2026-04-27 20:47 42.39553 -77.41887 41262 ft 494 kts 75°
2026-04-27 20:47 42.40593 -77.32709 41272 ft 493 kts 75°
2026-04-27 20:48 42.41448 -77.25089 41274 ft 493 kts 75°
2026-04-27 20:48 42.42647 -77.14373 41272 ft 493 kts 75°
2026-04-27 20:49 42.43664 -77.05200 41268 ft 493 kts 75°
2026-04-27 20:49 42.44664 -76.96009 41269 ft 493 kts 75°
2026-04-27 20:50 42.45668 -76.86822 41269 ft 493 kts 75°
2026-04-27 20:50 42.46673 -76.77631 41265 ft 493 kts 75°
2026-04-27 20:51 42.47665 -76.68434 41270 ft 493 kts 75°
2026-04-27 20:51 42.48643 -76.59241 41271 ft 494 kts 75°
2026-04-27 20:52 42.49613 -76.50023 41270 ft 494 kts 75°
2026-04-27 20:52 42.50583 -76.40800 41270 ft 494 kts 75°
2026-04-27 20:53 42.51184 -76.31474 41266 ft 505 kts 88°
2026-04-27 20:53 42.50689 -76.26735 41273 ft 512 kts 99°
2026-04-27 20:53 42.49640 -76.22096 41269 ft 516 kts 104°
2026-04-27 20:54 42.46221 -76.08268 41273 ft 516 kts 104°
2026-04-27 20:55 42.43953 -75.99041 41259 ft 515 kts 104°
2026-04-27 20:55 42.42825 -75.94449 40935 ft 512 kts 104°
2026-04-27 20:55 42.41702 -75.89921 40656 ft 504 kts 104°
2026-04-27 20:55 42.40963 -75.86960 40486 ft 500 kts 104°
2026-04-27 20:56 42.39479 -75.81017 40165 ft 497 kts 104°
2026-04-27 20:56 42.38372 -75.76584 39934 ft 497 kts 103°
2026-04-27 20:56 42.37637 -75.73634 39771 ft 498 kts 103°
2026-04-27 20:56 42.36175 -75.67749 39459 ft 499 kts 103°
2026-04-27 20:57 42.35428 -75.64748 39310 ft 500 kts 103°
2026-04-27 20:57 42.33947 -75.58837 39013 ft 501 kts 103°
2026-04-27 20:57 42.33188 -75.55829 38853 ft 502 kts 103°
2026-04-27 20:57 42.32055 -75.51362 38582 ft 502 kts 103°
2026-04-27 20:58 42.30551 -75.45443 38212 ft 502 kts 103°
2026-04-27 20:58 42.29420 -75.40975 37936 ft 502 kts 103°
2026-04-27 20:58 42.28659 -75.37968 37746 ft 501 kts 103°
2026-04-27 20:58 42.27530 -75.33510 37074 ft 502 kts 103°
2026-04-27 20:59 42.26393 -75.29042 36179 ft 507 kts 103°
2026-04-27 20:59 42.25242 -75.24513 35236 ft 512 kts 103°
2026-04-27 20:59 42.24084 -75.19967 34311 ft 510 kts 103°
2026-04-27 20:59 42.22929 -75.15448 33102 ft 510 kts 104°
2026-04-27 21:00 42.21778 -75.10951 32017 ft 515 kts 104°
2026-04-27 21:00 42.20598 -75.06364 31095 ft 518 kts 104°
2026-04-27 21:00 42.19411 -75.01787 30366 ft 515 kts 105°
2026-04-27 21:00 42.18216 -74.97259 29530 ft 513 kts 107°
2026-04-27 21:01 42.16684 -74.92919 28705 ft 513 kts 116°
2026-04-27 21:01 42.14935 -74.88757 27909 ft 509 kts 116°
2026-04-27 21:01 42.13202 -74.84638 27135 ft 503 kts 116°
2026-04-27 21:01 42.11487 -74.80551 26381 ft 498 kts 116°
2026-04-27 21:02 42.09797 -74.76513 25647 ft 492 kts 115°
2026-04-27 21:02 42.08125 -74.72529 24936 ft 486 kts 115°
2026-04-27 21:02 42.06466 -74.68584 24238 ft 480 kts 115°
2026-04-27 21:02 42.04830 -74.64701 23492 ft 474 kts 115°
2026-04-27 21:03 42.03210 -74.60859 22687 ft 469 kts 115°
2026-04-27 21:03 42.01608 -74.57057 21904 ft 465 kts 115°
2026-04-27 21:03 42.00028 -74.53289 21132 ft 461 kts 115°
2026-04-27 21:03 41.98463 -74.49541 20394 ft 457 kts 115°
2026-04-27 21:04 41.96913 -74.45837 19661 ft 453 kts 116°
2026-04-27 21:04 41.95314 -74.42208 18940 ft 449 kts 118°
2026-04-27 21:04 41.93663 -74.38669 18185 ft 445 kts 119°
2026-04-27 21:04 41.91989 -74.35200 17397 ft 441 kts 120°
2026-04-27 21:05 41.90316 -74.31779 16628 ft 436 kts 120°
2026-04-27 21:05 41.88676 -74.28425 15853 ft 423 kts 121°
2026-04-27 21:05 41.87091 -74.25159 15117 ft 411 kts 121°
2026-04-27 21:05 41.85562 -74.21982 14401 ft 400 kts 121°
2026-04-27 21:06 41.84083 -74.18880 13738 ft 388 kts 121°
2026-04-27 21:06 41.82658 -74.15881 13080 ft 375 kts 121°
2026-04-27 21:06 41.81278 -74.12976 12437 ft 364 kts 121°
2026-04-27 21:06 41.79941 -74.10164 11899 ft 350 kts 121°
2026-04-27 21:07 41.78655 -74.07465 11398 ft 338 kts 121°
2026-04-27 21:07 41.77410 -74.04857 10908 ft 327 kts 121°
2026-04-27 21:07 41.76198 -74.02320 10426 ft 319 kts 121°
2026-04-27 21:07 41.75022 -73.99855 10007 ft 310 kts 121°
2026-04-27 21:08 41.73867 -73.97436 9601 ft 306 kts 121°
2026-04-27 21:08 41.72723 -73.95047 9210 ft 303 kts 121°
2026-04-27 21:08 41.71603 -73.92720 8814 ft 292 kts 121°
2026-04-27 21:08 41.70521 -73.90475 8432 ft 283 kts 121°
2026-04-27 21:09 41.69471 -73.88300 8060 ft 282 kts 121°
2026-04-27 21:09 41.68357 -73.86117 7679 ft 281 kts 129°
2026-04-27 21:09 41.66899 -73.84428 7305 ft 282 kts 147°
2026-04-27 21:09 41.65103 -73.83411 6993 ft 280 kts 165°
2026-04-27 21:10 41.63176 -73.83172 6746 ft 279 kts 182°
2026-04-27 21:10 41.61242 -73.83601 6491 ft 276 kts 190°
2026-04-27 21:10 41.59382 -73.84087 6229 ft 269 kts 189°
2026-04-27 21:10 41.57590 -73.84550 6029 ft 260 kts 189°
2026-04-27 21:11 41.55856 -73.84997 5973 ft 246 kts 189°
2026-04-27 21:11 41.54233 -73.85416 5979 ft 229 kts 189°
2026-04-27 21:11 41.52672 -73.85820 5986 ft 235 kts 189°
2026-04-27 21:11 41.51038 -73.86241 5986 ft 241 kts 189°
2026-04-27 21:12 41.49388 -73.86664 5981 ft 242 kts 189°
2026-04-27 21:12 41.47731 -73.87088 5982 ft 243 kts 189°
2026-04-27 21:12 41.46048 -73.87327 5984 ft 243 kts 181°
2026-04-27 21:12 41.44356 -73.87441 5927 ft 243 kts 181°
2026-04-27 21:13 41.42669 -73.87531 5813 ft 242 kts 180°
2026-04-27 21:13 41.40988 -73.87614 5686 ft 241 kts 181°
2026-04-27 21:13 41.39312 -73.87699 5559 ft 241 kts 181°
2026-04-27 21:13 41.37637 -73.87785 5433 ft 241 kts 181°
2026-04-27 21:14 41.35979 -73.87875 5304 ft 235 kts 181°
2026-04-27 21:14 41.34375 -73.87966 5175 ft 225 kts 181°
2026-04-27 21:14 41.32832 -73.88052 5050 ft 220 kts 181°
2026-04-27 21:14 41.31308 -73.88134 4917 ft 219 kts 181°
2026-04-27 21:15 41.29799 -73.88074 4788 ft 214 kts 167°
2026-04-27 21:15 41.28453 -73.87397 4711 ft 201 kts 149°
2026-04-27 21:15 41.27268 -73.86483 4568 ft 195 kts 148°
2026-04-27 21:15 41.26102 -73.85583 4445 ft 193 kts 148°
2026-04-27 21:16 41.24944 -73.84690 4333 ft 193 kts 148°
2026-04-27 21:16 41.23783 -73.83795 4125 ft 192 kts 148°
2026-04-27 21:16 41.22632 -73.82909 3872 ft 191 kts 148°
2026-04-27 21:16 41.21487 -73.82027 3628 ft 190 kts 148°
2026-04-27 21:17 41.20345 -73.81149 3378 ft 189 kts 148°
2026-04-27 21:17 41.19212 -73.80277 3125 ft 187 kts 149°
2026-04-27 21:17 41.18091 -73.79416 2864 ft 185 kts 149°
2026-04-27 21:17 41.17013 -73.78584 2645 ft 172 kts 148°
2026-04-27 21:18 41.16033 -73.77798 2508 ft 159 kts 148°
2026-04-27 21:18 41.15087 -73.77057 2347 ft 156 kts 149°
2026-04-27 21:18 41.14151 -73.76366 1984 ft 153 kts 151°
2026-04-27 21:18 41.13238 -73.75685 1754 ft 149 kts 149°
2026-04-27 21:19 41.12349 -73.74977 1531 ft 145 kts 148°
2026-04-27 21:19 41.11472 -73.74321 1343 ft 143 kts 151°
2026-04-27 21:19 41.10588 -73.73642 1233 ft 142 kts 149°
2026-04-27 21:20 41.08943 -73.72384 853 ft 135 kts 150°
2026-04-27 21:20 41.08145 -73.71767 631 ft 130 kts 150°
2026-04-27 21:20 41.07372 -73.71182 433 ft 124 kts 151°
2026-04-27 21:20 41.06714 -73.70682 420 ft 92 kts 150°
2026-04-27 21:21 41.06306 -73.70377 415 ft 46 kts 150°
2026-04-27 21:21 41.06080 -73.70202 418 ft 23 kts 148°
2026-04-27 21:21 41.05990 -73.70191 419 ft 14 kts 215°
2026-04-27 21:21 41.05954 -73.70306 420 ft 15 kts 276°
2026-04-27 21:22 41.06052 -73.70434 417 ft 26 kts 330°
2026-04-27 21:22 41.06237 -73.70571 416 ft 32 kts 330°
2026-04-27 21:22 41.06386 -73.70687 420 ft 19 kts 329°
2026-04-27 21:22 41.06443 -73.70821 412 ft 12 kts 280°
2026-04-27 21:23 41.06395 -73.70886 417 ft 9 kts 236°
2026-04-27 21:23 41.06405 -73.70946 418 ft 7 kts 281°
2026-04-27 21:23 41.06408 -73.70961 420 ft 0 kts 284°